KG5VSR Weather Reports


time (UTC)temp
F
wind
direction
speed
knots
gust
knots
rain 1hr
in
rain 24hr
in
rain mn
in
humidity
%
barometer
mb
20260902014033 92 244 0.0 0.9 0.00 0.00 0.00 55 1013.5
20260902011031 92 280 0.0 0.0 0.00 0.00 0.00 55 1013.3
20260902004027 95 315 0.0 0.0 0.00 0.00 0.00 51 1013.3
20260902001027 96 189 1.7 1.7 0.00 0.00 0.00 49 1013.3
20260901234025 97 18 0.0 0.9 0.00 0.00 0.00 48 1013.4
20260901231021 96 118 0.9 0.9 0.00 0.00 0.00 49 1013.8
20260901224021 97 60 0.0 0.0 0.00 0.00 0.00 48 1013.7
20260901221017 99 68 0.0 0.9 0.00 0.00 0.00 47 1014.0
20260901214013 99 86 0.0 0.9 0.00 0.00 0.00 46 1014.0
20260901211014 99 221 2.6 4.3 0.00 0.00 0.00 47 1014.2
20260901204008 99 73 0.9 2.6 0.00 0.00 0.00 46 1014.5
20260901201008 100 110 2.6 2.6 0.00 0.00 0.00 47 1014.8
20260901194002 96 62 1.7 2.6 0.00 0.00 0.00 50 1015.3
20260901191001 100 37 0.9 0.9 0.00 0.00 0.00 45 1015.4
20260901183956 97 60 0.9 1.7 0.00 0.00 0.00 48 1016.4
20260901180953 95 326 0.9 2.6 0.00 0.00 0.00 53 1016.5
20260901173950 96 165 3.5 5.2 0.00 0.00 0.00 51 1017.3
20260901170949 97 198 1.7 4.3 0.00 0.00 0.00 53 1017.6
20260901163948 93 277 0.9 1.7 0.00 0.00 0.00 58 1017.6
20260901160949 94 299 0.0 0.0 0.00 0.00 0.00 57 1017.9
20260901153946 91 136 1.7 1.7 0.00 0.00 0.00 61 1017.8
20260901150946 89 180 2.6 2.6 0.00 0.00 0.00 65 1017.7
20260901143945 87 186 0.9 0.9 0.00 0.00 0.00 69 1018.0
20260901140945 87 184 0.9 0.9 0.00 0.00 0.00 70 1017.9
20260901133942 86 228 0.0 0.9 0.00 0.00 0.00 71 1017.7
20260901130940 84 224 0.9 0.9 0.00 0.00 0.00 73 1018.1
20260901123940 81 259 0.0 0.0 0.00 0.00 0.00 77 1017.5
20260901120940 79 163 0.0 0.0 0.00 0.00 0.00 79 1017.0
20260901113938 79 266 0.0 0.0 0.00 0.00 0.00 79 1016.9
20260901110938 80 244 0.0 0.0 0.00 0.00 0.00 76 1016.8
20260901103935 80 257 0.0 0.0 0.00 0.00 0.00 75 1016.6
20260901100931 81 276 0.0 0.0 0.00 0.00 0.00 73 1016.8
20260901093929 82 202 0.0 0.0 0.00 0.00 0.00 70 1017.0
20260901090929 82 258 0.0 0.0 0.00 0.00 0.00 70 1016.7
20260901083925 83 174 0.0 0.0 0.00 0.00 0.00 68 1016.6
20260901080920 84 228 0.0 0.0 0.00 0.00 0.00 66 1016.5
20260901073917 85 233 0.0 0.0 0.00 0.00 0.00 64 1016.6
20260901070913 86 165 0.9 1.7 0.00 0.00 0.00 62 1016.3
20260901063909 87 83 0.0 0.0 0.00 0.00 0.00 60 1016.3
20260901060907 87 104 0.9 1.7 0.00 0.00 0.00 58 1016.0
20260901053905 88 55 0.9 0.9 0.00 0.00 0.00 56 1015.9
20260901050903 87 344 0.0 0.9 0.00 0.00 0.00 55 1015.6
20260901043858 86 334 0.0 0.0 0.00 0.00 0.00 58 1015.5
20260901040856 85 299 0.0 0.0 0.00 0.00 0.00 60 1015.2
20260901033854 86 299 0.0 0.0 0.00 0.00 0.00 58 1015.2
20260901030854 87 299 0.0 0.0 0.00 0.00 0.00 53 1015.2
20260901023854 89 299 0.0 0.0 0.00 0.00 0.00 51 1014.7
20260901020849 90 336 0.0 0.0 0.00 0.00 0.00 48 1014.5